Overview Statistics Trail Chart Weather Telemetry Raw packets
 

This is the latest recevied weather packets stored in our database for station/object KE8WMS. If no packets are shown the sender has not sent any weather packets the latest 10 day(s).

<< 29 30 31 32 33 34 35 >>
Time Temp. Humidity Pressure Rain* Wind** Luminosity Snow
1777641678 6.11° C 97% 1009.8 hPa 0 mm - 49 W/m² -
1777641373 6.11° C 97% 1009.7 hPa 0 mm - 91 W/m² -
1777641069 6.11° C 97% 1010 hPa 0 mm - 45 W/m² -
1777640765 6.11° C 97% 1009.7 hPa 0 mm - 54 W/m² -
1777640463 6.11° C 97% 1009.9 hPa 0 mm - 31 W/m² -
1777640159 6.11° C 97% 1009.8 hPa 0 mm - 35 W/m² -
1777639856 6.11° C 97% 1009.7 hPa 0 mm - 34 W/m² -
1777639554 6.11° C 97% 1009.7 hPa 0 mm - 69 W/m² -
1777639250 5.56° C 97% 1009.7 hPa 0 mm - 44 W/m² -
1777638946 5.56° C 97% 1009.4 hPa 0 mm - 53 W/m² -
1777638642 5.56° C 97% 1009.8 hPa 1.78 mm - 53 W/m² -
1777638333 5.56° C 97% 1009.8 hPa 1.78 mm - 24 W/m² -
1777638029 6.11° C 97% 1009.9 hPa 0 mm - 25 W/m² -
1777637726 5.56° C 97% 1010.1 hPa 1.78 mm - 36 W/m² -
1777637422 5.56° C 97% 1010.2 hPa 1.78 mm - 29 W/m² -
1777637119 5.56° C 97% 1009.8 hPa 1.27 mm - 14 W/m² -
1777636825 5.56° C 96% 1009.7 hPa 1.27 mm - 14 W/m² -
1777636511 5.56° C 96% 1009.7 hPa 0 mm - 14 W/m² -
1777636208 5.56° C 96% 1009.4 hPa 0 mm - 13 W/m² -
1777635903 5.56° C 96% 1009.4 hPa 0 mm - 17 W/m² -
1777635599 5.56° C 96% 1009.6 hPa 0 mm - 20 W/m² -
1777635295 5.56° C 96% 1009.3 hPa 1.78 mm - 13 W/m² -
1777634992 5.56° C 95% 1010 hPa 3.05 mm - 13 W/m² -
1777634689 5.56° C 95% 1010.4 hPa 3.05 mm - 17 W/m² -
1777634387 6.11° C 95% 1010.6 hPa 3.05 mm - 8 W/m² -

* Rain latest hour (hover to see other rain measurements)
** Current wind speed in m/s (hover to see current wind gust speed)